[Date Prev][Date Next][Thread Prev][Thread Next] - [Date Index][Thread Index][Author Index]
2 Line ISS Keps 7-11
- Subject: [sarex] 2 Line ISS Keps 7-11
- From: "Dave Larsen PhD" <doc@xxxxxxxxxxx>
- Date: Wed, 11 Jul 2001 08:07:24 -0700
ISS
1 25544U 98067A 01192.46779579 .00034116 00000-0 35448-3 0 1991
2 25544 51.5715 325.7926 0016170 271.2309 199.4288 15.64126024150872
----
Via the sarex mailing list at AMSAT.ORG courtesy of AMSAT-NA.
To unsubscribe, send "unsubscribe sarex" to Majordomo@amsat.org
AMSAT Home